Simultaneous Nadir Overpasses (SNOs) Predictions

Prediction of SNOs between FY3D and NOAA-19 Satellite Orbit:

Table of predicted SNOs for the next 14.0 days since TLE Epoch: 8/12/2023
Index Date (FY3D) Time (FY3D) Lat,Lon (FY3D) SZA (FY3D ) Date (NOAA-19) Time (NOAA-19) Lat,Lon (NOAA-19) SZA (NOAA-19 ) Distance(km) Time Diff (sec)
1 08/23/2023 00:31:30 -76.09, -14.05 115.47 08/23/2023 00:30:22 -76.07, -16.68 115.38 70.45 68
2 08/23/2023 01:22:24 76.43, 152.03 64.92 08/23/2023 01:21:09 76.41, 151.87 64.92 4.74 75
3 08/23/2023 02:13:09 -76.43, -40.67 115.07 08/23/2023 02:12:12 -76.46, -40.69 115.03 3.52 57
4 08/23/2023 03:03:56 76.45, 126.56 64.97 08/23/2023 03:03:07 76.45, 126.53 64.98 0.83 49
5 08/23/2023 03:54:41 -76.46, -66.15 115.02 08/23/2023 03:54:11 -76.46, -66.20 115.01 1.27 30
6 08/23/2023 04:45:28 76.48, 101.07 65.02 08/23/2023 04:45:05 76.49, 101.19 65.03 3.11 23
7 08/23/2023 05:36:13 -76.48, -91.63 114.96 08/23/2023 05:36:09 -76.50, -91.54 114.95 2.89 4
8 08/23/2023 06:27:00 76.51, 75.59 65.08 08/23/2023 06:27:04 76.48, 75.68 65.05 3.29 4
9 08/23/2023 07:17:45 -76.51,-117.11 114.91 08/23/2023 07:18:08 -76.49,-117.05 114.93 2.46 23
10 08/23/2023 08:08:31 76.49, 50.28 65.08 08/23/2023 08:09:03 76.48, 50.16 65.07 3.24 32
11 08/23/2023 08:59:16 -76.49,-142.42 114.91 08/23/2023 09:00:07 -76.49,-142.56 114.91 3.50 51
12 08/23/2023 09:50:03 76.51, 24.80 65.14 08/23/2023 09:51:01 76.52, 24.83 65.13 0.72 58
13 08/23/2023 10:40:50 -76.61,-168.24 114.75 08/23/2023 10:42:04 -76.57,-167.72 114.82 14.04 74
14 08/23/2023 11:31:45 76.98, -2.44 65.69 08/23/2023 11:32:50 76.94, 1.11 65.52 89.25 65



Historial Predications of SNOs between FY3D and NOAA-19
